Weather History for Port Heiden, AK

Change the Weather History Date:

Thursday, January 2, 2014

  Actual Average Record
Temperature  
Mean Temperature 36 °F -  
Max Temperature 42 °F 26 °F 42 °F (2005)
Min Temperature 30 °F 14 °F -11 °F (2000)
Degree Days  
Heating Degree Days 29    
Moisture  
Dew Point 27 °F    
Average Humidity 68    
Maximum Humidity 81    
Minimum Humidity 42    
Precipitation  
Precipitation 0.00 in - - ()
Sea Level Pressure  
Sea Level Pressure 29.83 in    
Wind  
Wind Speed 11 mph (SSE)    
Max Wind Speed 24 mph    
Max Gust Speed 30 mph    
Visibility 10 miles    
Events      
Averages and records for this station are not official NWS values.
T = Trace of Precipitation, MM = Missing Value Source: NWS Daily Summary

Daily Weather History Graph

Daily Weather History Graph

Search for Another Location

Airport:

Trip Planner

Search our weather history database for the weather conditions in past years. The results will help you decide how hot, cold, wet, or windy it might be!

Date:

Astronomy

Jan. 02, 2014 Rise Set
Actual Time 10:11 AM AKST 5:05 PM AKST
Civil Twilight 9:23 AM AKST 5:54 PM AKST
Nautical Twilight 8:32 AM AKST 6:44 PM AKST
Astronomical Twilight 7:46 AM AKST 7:31 PM AKST
Moon 10:34 AM AKST (1/2) 7:49 PM AKST (1/2)
Length of Visible Light 8h 31m
Length of Day
6h 54m
Waxing Crescent, 3% of the Moon is Illuminated
Jan 2
Waxing Crescent
Jan 7
First Quarter
Jan 15
Full
Jan 23
Last Quarter
Jan 30
New

Hourly Weather History & Observations

Time (AKST) Temp. Windchill Dew Point Humidity Pressure Visibility Wind Dir Wind Speed Gust Speed Precip Events Conditions
12:16 AM 33.8 °F 25.8 °F 26.6 °F 75% 29.75 in 10.0 mi SW 10.4 mph - N/A   Overcast
12:36 AM 33.8 °F 25.8 °F 26.6 °F 75% 29.76 in 10.0 mi SSW 10.4 mph - N/A   Overcast
12:56 AM 33.8 °F 27.0 °F 26.6 °F 75% 29.77 in 10.0 mi SW 8.1 mph - N/A   Overcast
1:16 AM 33.8 °F 27.7 °F 28.4 °F 81% 29.78 in 10.0 mi SW 6.9 mph - N/A   Overcast
1:36 AM 33.8 °F 27.0 °F 26.6 °F 75% 29.78 in 10.0 mi South 8.1 mph - N/A   Overcast
1:56 AM 33.8 °F 25.8 °F 26.6 °F 75% 29.79 in 10.0 mi SSE 10.4 mph - N/A   Overcast
2:16 AM 32.0 °F 25.6 °F 24.8 °F 75% 29.79 in 10.0 mi South 6.9 mph - N/A   Mostly Cloudy
2:36 AM 30.2 °F 22.6 °F 24.8 °F 80% 29.80 in 10.0 mi SSE 8.1 mph - N/A   Clear
2:56 AM 30.2 °F 23.4 °F 24.8 °F 80% 29.80 in 10.0 mi SSE 6.9 mph - N/A   Scattered Clouds
3:16 AM 30.2 °F 23.4 °F 24.8 °F 80% 29.80 in 10.0 mi SSE 6.9 mph - N/A   Scattered Clouds
3:36 AM 30.2 °F 24.3 °F 24.8 °F 80% 29.81 in 10.0 mi SSE 5.8 mph - N/A   Clear
3:56 AM 32.0 °F 25.6 °F 24.8 °F 75% 29.81 in 10.0 mi SSE 6.9 mph - N/A   Partly Cloudy
4:16 AM 32.0 °F 26.4 °F 24.8 °F 75% 29.81 in 10.0 mi SSE 5.8 mph - N/A   Partly Cloudy
4:36 AM 32.0 °F 25.6 °F 24.8 °F 75% 29.81 in 10.0 mi SE 6.9 mph - N/A   Partly Cloudy
4:56 AM 32.0 °F 26.4 °F 24.8 °F 75% 29.81 in 10.0 mi SE 5.8 mph - N/A   Clear
5:16 AM 32.0 °F 25.6 °F 24.8 °F 75% 29.81 in 10.0 mi SE 6.9 mph - N/A   Clear
5:36 AM 33.8 °F 29.6 °F 24.8 °F 70% 29.80 in 10.0 mi ESE 4.6 mph - N/A   Clear
5:56 AM 33.8 °F 28.6 °F 24.8 °F 70% 29.80 in 10.0 mi ESE 5.8 mph - N/A   Clear
6:16 AM 32.0 °F - 24.8 °F 75% 29.79 in 10.0 mi Calm Calm - N/A   Clear
6:36 AM 30.2 °F 24.3 °F 23.0 °F 75% 29.79 in 10.0 mi East 5.8 mph - N/A   Partly Cloudy
6:56 AM 30.2 °F 24.3 °F 23.0 °F 75% 29.78 in 10.0 mi East 5.8 mph - N/A   Clear
7:16 AM 30.2 °F 24.3 °F 23.0 °F 75% 29.78 in 10.0 mi East 5.8 mph - N/A   Clear
7:36 AM 32.0 °F 28.7 °F 21.2 °F 64% 29.79 in 10.0 mi ESE 3.5 mph - N/A   Clear
7:56 AM 33.8 °F 30.8 °F 21.2 °F 60% 29.79 in 10.0 mi East 3.5 mph - N/A   Clear
8:16 AM 37.4 °F 33.8 °F 21.2 °F 52% 29.79 in 10.0 mi SE 4.6 mph - N/A   Partly Cloudy
8:36 AM 35.6 °F 29.9 °F 21.2 °F 56% 29.79 in 10.0 mi SE 6.9 mph - N/A   Mostly Cloudy
8:56 AM 35.6 °F 30.7 °F 21.2 °F 56% 29.79 in 10.0 mi SE 5.8 mph - N/A   Partly Cloudy
9:16 AM 35.6 °F 26.2 °F 24.8 °F 65% 29.79 in 10.0 mi SSE 15.0 mph - N/A   Mostly Cloudy
9:36 AM 37.4 °F 27.5 °F 24.8 °F 60% 29.79 in 10.0 mi SSE 18.4 mph - N/A   Partly Cloudy
9:56 AM 37.4 °F 28.5 °F 24.8 °F 60% 29.80 in 10.0 mi SSE 15.0 mph 24.2 mph N/A   Partly Cloudy
10:16 AM 37.4 °F 27.8 °F 26.6 °F 65% 29.81 in 10.0 mi SSE 17.3 mph - N/A   Partly Cloudy
10:36 AM 37.4 °F 27.2 °F 26.6 °F 65% 29.81 in 10.0 mi SE 19.6 mph 24.2 mph N/A   Clear
10:56 AM 37.4 °F 28.2 °F 26.6 °F 65% 29.81 in 10.0 mi SE 16.1 mph 25.3 mph N/A   Clear
11:16 AM 37.4 °F 27.2 °F 26.6 °F 65% 29.81 in 10.0 mi SE 19.6 mph - N/A   Clear
11:36 AM 37.4 °F 26.6 °F 28.4 °F 70% 29.81 in 10.0 mi SE 21.9 mph 25.3 mph N/A   Clear
11:56 AM 39.2 °F 28.5 °F 28.4 °F 65% 29.80 in 10.0 mi SE 24.2 mph - N/A   Clear
12:16 PM 39.2 °F 29.0 °F 28.4 °F 65% 29.81 in 10.0 mi SE 21.9 mph - N/A   Clear
12:36 PM 39.2 °F 29.0 °F 30.2 °F 70% 29.81 in 10.0 mi SE 21.9 mph 27.6 mph N/A   Clear
12:56 PM 39.2 °F 29.8 °F 30.2 °F 70% 29.81 in 10.0 mi SE 18.4 mph 24.2 mph N/A   Clear
1:16 PM 39.2 °F 28.7 °F 30.2 °F 70% 29.81 in 10.0 mi SE 23.0 mph - N/A   Clear
1:36 PM 39.2 °F 28.5 °F 30.2 °F 70% 29.80 in 10.0 mi SE 24.2 mph 28.8 mph N/A   Clear
1:56 PM 39.2 °F 29.3 °F 30.2 °F 70% 29.80 in 10.0 mi SE 20.7 mph 29.9 mph N/A   Clear
2:16 PM 39.2 °F 29.0 °F 30.2 °F 70% 29.80 in 10.0 mi SE 21.9 mph 27.6 mph N/A   Clear
2:36 PM 41.0 °F 31.6 °F 30.2 °F 65% 29.80 in 10.0 mi SE 20.7 mph - N/A   Clear
2:56 PM 41.0 °F 31.4 °F 30.2 °F 65% 29.80 in 10.0 mi SE 21.9 mph - N/A   Clear
3:16 PM 41.0 °F 31.6 °F 30.2 °F 65% 29.79 in 10.0 mi SE 20.7 mph - N/A   Clear
3:36 PM 41.0 °F 31.6 °F 30.2 °F 65% 29.79 in 10.0 mi SE 20.7 mph 24.2 mph N/A   Clear
3:56 PM 41.0 °F 31.6 °F 30.2 °F 65% 29.80 in 10.0 mi SSE 20.7 mph 25.3 mph N/A   Clear
4:16 PM 41.0 °F 31.6 °F 30.2 °F 65% 29.81 in 10.0 mi SSE 20.7 mph 24.2 mph N/A   Clear
4:36 PM 41.0 °F 32.5 °F 30.2 °F 65% 29.81 in 10.0 mi SSE 17.3 mph - N/A   Clear
4:56 PM 41.0 °F 33.5 °F 30.2 °F 65% 29.82 in 10.0 mi SSE 13.8 mph - N/A   Clear
5:16 PM 39.2 °F 30.8 °F 30.2 °F 70% 29.83 in 10.0 mi SSE 15.0 mph - N/A   Clear
5:36 PM 39.2 °F 31.6 °F 30.2 °F 70% 29.84 in 10.0 mi South 12.7 mph - N/A   Clear
5:56 PM 37.4 °F 30.3 °F 30.2 °F 75% 29.86 in 10.0 mi SSE 10.4 mph - N/A   Scattered Clouds
6:16 PM 39.2 °F 32.5 °F 30.2 °F 70% 29.86 in 10.0 mi South 10.4 mph - N/A   Partly Cloudy
6:36 PM 39.2 °F 30.5 °F 30.2 °F 70% 29.86 in 10.0 mi South 16.1 mph - N/A   Clear
6:56 PM 39.2 °F 31.2 °F 30.2 °F 70% 29.87 in 10.0 mi South 13.8 mph - N/A   Clear
7:16 PM 37.4 °F 28.2 °F 28.4 °F 70% 29.86 in 10.0 mi South 16.1 mph - N/A   Clear
7:36 PM 39.2 °F 30.8 °F 28.4 °F 65% 29.86 in 10.0 mi SSE 15.0 mph - N/A   Clear
7:56 PM 37.4 °F 29.3 °F 28.4 °F 70% 29.87 in 10.0 mi South 12.7 mph - N/A   Clear
8:16 PM 37.4 °F 29.3 °F 28.4 °F 70% 29.88 in 10.0 mi South 12.7 mph - N/A   Clear
8:36 PM 37.4 °F 30.3 °F 28.4 °F 70% 29.89 in 10.0 mi South 10.4 mph - N/A   Partly Cloudy
8:56 PM 37.4 °F 28.9 °F 28.4 °F 70% 29.90 in 10.0 mi South 13.8 mph - N/A   Partly Cloudy
9:16 PM 37.4 °F 29.3 °F 28.4 °F 70% 29.90 in 10.0 mi South 12.7 mph - N/A   Clear
9:36 PM 39.2 °F 30.5 °F 28.4 °F 65% 29.91 in 10.0 mi SSE 16.1 mph - N/A   Partly Cloudy
9:56 PM 37.4 °F 30.3 °F 26.6 °F 65% 29.92 in 10.0 mi South 10.4 mph - N/A   Clear
10:16 PM 37.4 °F 29.8 °F 26.6 °F 65% 29.93 in 10.0 mi South 11.5 mph - N/A   Partly Cloudy
10:36 PM 37.4 °F 30.3 °F 28.4 °F 70% 29.93 in 10.0 mi South 10.4 mph - N/A   Clear
10:56 PM 37.4 °F 30.8 °F 26.6 °F 65% 29.94 in 10.0 mi South 9.2 mph - N/A   Clear
11:16 PM 37.4 °F 31.4 °F 26.6 °F 65% 29.95 in 10.0 mi SSW 8.1 mph - N/A   Clear
11:36 PM 37.4 °F 29.8 °F 26.6 °F 65% 29.96 in 10.0 mi South 11.5 mph - N/A   Clear
11:56 PM 37.4 °F 31.4 °F 26.6 °F 65% 29.96 in 10.0 mi SSW 8.1 mph - N/A   Clear